Weather History for Hattiesburg, MS

Change the Weather History Date:

Tuesday, January 15, 2013

  Actual Average Record
Temperature  
Mean Temperature 44 °F 48 °F  
Max Temperature 48 °F 60 °F 79 °F (1950)
Min Temperature 40 °F 37 °F 16 °F (1964)
Degree Days  
Heating Degree Days 21 17  
Month to date heating degree days 190 248  
Since 1 July heating degree days 892 1033  
Cooling Degree Days 0 0  
Month to date cooling degree days 17 0  
Year to date cooling degree days 17 0  
Moisture  
Dew Point 42 °F    
Average Humidity 91    
Maximum Humidity 96    
Minimum Humidity 86    
Precipitation  
Precipitation 0.16 in 0.16 in 1.93 in (1989)
Month to date precipitation 5.69 2.67  
Year to date precipitation 5.69 2.67  
Sea Level Pressure  
Sea Level Pressure 30.04 in    
Wind  
Wind Speed 5 mph (North)    
Max Wind Speed 10 mph    
Max Gust Speed 14 mph    
Visibility 4 miles    
Events Rain    
T = Trace of Precipitation, MM = Missing Value Source: NWS Daily Summary

Daily Weather History Graph

Daily Weather History Graph

Search for Another Location

Airport:

Trip Planner

Search our weather history database for the weather conditions in past years. The results will help you decide how hot, cold, wet, or windy it might be!

Date:

Astronomy

Jan. 15, 2013 Rise Set
Actual Time 6:56 AM CST 5:17 PM CST
Civil Twilight 6:30 AM CST 5:43 PM CST
Nautical Twilight 6:00 AM CST 6:13 PM CST
Astronomical Twilight 5:31 AM CST 6:42 PM CST
Moon 9:21 AM CST (1/15) 9:44 PM CST (1/15)
Length of Visible Light 11h 13m
Length of Day
10h 20m
Waxing Crescent, 19% of the Moon is Illuminated
Jan 15
Waxing Crescent
Jan 18
First Quarter
Jan 26
Full
Feb 3
Last Quarter
Feb 10
New

Hourly Weather History & Observations

Time (CST) Temp. Windchill Dew Point Humidity Pressure Visibility Wind Dir Wind Speed Gust Speed Precip Events Conditions
12:14 AM 41.0 °F 37.1 °F 37.4 °F 87% 30.11 in 10.0 mi NNE 5.8 mph - N/A   Overcast
12:25 AM 41.0 °F 38.0 °F 37.4 °F 87% 30.11 in 10.0 mi NNE 4.6 mph - N/A   Overcast
12:53 AM 41.0 °F 38.0 °F 37.9 °F 89% 30.12 in 10.0 mi North 4.6 mph - N/A   Overcast
1:08 AM 41.0 °F 38.0 °F 37.4 °F 87% 30.10 in 7.0 mi North 4.6 mph - 0.01 in Rain Rain
1:43 AM 41.0 °F 37.1 °F 39.2 °F 93% 30.09 in 8.0 mi NNE 5.8 mph - 0.04 in Rain Light Rain
2:12 AM 41.0 °F 37.1 °F 39.2 °F 93% 30.09 in 10.0 mi NNW 5.8 mph - N/A   Overcast
2:53 AM 41.0 °F 35.8 °F 37.9 °F 89% 30.10 in 10.0 mi North 8.1 mph - N/A   Overcast
3:53 AM 41.0 °F 36.4 °F 37.9 °F 89% 30.09 in 7.0 mi North 6.9 mph - N/A   Overcast
5:00 AM 41.0 °F 38.0 °F 39.2 °F 93% 30.07 in 6.0 mi NNE 4.6 mph - 0.01 in Rain Light Rain
5:53 AM 41.0 °F 37.1 °F 39.0 °F 93% 30.07 in 10.0 mi NNE 5.8 mph - 0.04 in   Overcast
6:53 AM 42.1 °F 39.2 °F 39.0 °F 89% 30.08 in 6.0 mi NNE 4.6 mph - 0.01 in Rain Light Rain
7:53 AM 42.1 °F 39.2 °F 39.9 °F 92% 30.08 in 3.0 mi NNE 4.6 mph - 0.02 in Rain Rain
8:53 AM 43.0 °F 40.3 °F 39.9 °F 89% 30.09 in 10.0 mi NNE 4.6 mph - 0.01 in   Overcast
9:53 AM 43.0 °F 40.3 °F 41.0 °F 93% 30.08 in 5.0 mi NE 4.6 mph - N/A   Overcast
10:08 AM 44.6 °F 42.2 °F 41.0 °F 87% 30.08 in 2.0 mi NE 4.6 mph - N/A   Overcast
10:16 AM 44.6 °F 42.2 °F 41.0 °F 87% 30.07 in 1.8 mi NE 4.6 mph - N/A   Overcast
10:42 AM 44.6 °F 43.1 °F 42.8 °F 93% 30.07 in 2.0 mi Variable 3.5 mph - N/A   Overcast
10:50 AM 44.6 °F 42.2 °F 42.8 °F 93% 30.07 in 1.5 mi North 4.6 mph - N/A   Overcast
10:53 AM 44.1 °F 41.5 °F 42.1 °F 93% 30.07 in 1.5 mi North 4.6 mph - N/A   Overcast
11:53 AM 45.0 °F 43.5 °F 42.1 °F 90% 30.04 in 2.0 mi North 3.5 mph - N/A   Overcast
12:03 PM 44.6 °F 43.1 °F 42.8 °F 93% 30.03 in 1.8 mi North 3.5 mph - N/A   Overcast
12:53 PM 46.0 °F - 44.1 °F 93% 30.01 in 1.2 mi Calm Calm - N/A   Overcast
1:53 PM 46.9 °F - 45.0 °F 93% 30.00 in 1.2 mi Calm Calm - N/A   Overcast
2:53 PM 48.0 °F - 46.0 °F 93% 30.00 in 1.5 mi North 3.5 mph - N/A   Overcast
3:38 PM 48.2 °F - 46.4 °F 93% 30.00 in 0.8 mi North 3.5 mph - N/A   Overcast
3:45 PM 48.2 °F - 46.4 °F 93% 30.00 in 1.0 mi North 3.5 mph - N/A   Overcast
3:53 PM 48.0 °F - 46.0 °F 93% 30.01 in 1.0 mi NNW 5.8 mph - N/A   Overcast
4:53 PM 48.0 °F - 46.0 °F 93% 30.01 in 1.2 mi North 5.8 mph - N/A   Overcast
5:21 PM 46.4 °F 42.9 °F 44.6 °F 93% 30.01 in 2.0 mi NNW 6.9 mph - N/A   Overcast
5:53 PM 46.9 °F - 45.0 °F 93% 30.01 in 2.5 mi North 5.8 mph - 0.00 in Rain Light Rain
6:32 PM 46.4 °F 43.5 °F 44.6 °F 93% 30.01 in 3.0 mi NNE 5.8 mph - 0.00 in   Overcast
6:50 PM 46.4 °F 43.5 °F 44.6 °F 93% 30.01 in 2.5 mi NNW 5.8 mph - 0.00 in Rain Light Rain
6:53 PM 46.0 °F 43.1 °F 44.1 °F 93% 30.01 in 2.5 mi North 5.8 mph - 0.00 in Rain Light Rain
7:07 PM 46.4 °F 43.5 °F 44.6 °F 93% 30.00 in 3.0 mi North 5.8 mph - 0.00 in   Overcast
7:50 PM 46.4 °F 43.5 °F 44.6 °F 93% 30.00 in 3.0 mi NNW 5.8 mph - 0.00 in   Overcast
7:53 PM 46.0 °F 43.1 °F 44.1 °F 93% 30.01 in 3.0 mi NW 5.8 mph - 0.00 in   Overcast
8:08 PM 46.4 °F 43.5 °F 44.6 °F 93% 30.00 in 2.5 mi NNW 5.8 mph - N/A   Overcast
8:42 PM 44.6 °F 42.2 °F 44.6 °F 100% 30.00 in 1.8 mi NNW 4.6 mph - N/A   Overcast
8:53 PM 45.0 °F 41.8 °F 43.0 °F 93% 30.01 in 2.0 mi NW 5.8 mph - N/A   Overcast
9:13 PM 44.6 °F 40.7 °F 42.8 °F 93% 30.00 in 1.8 mi NNW 6.9 mph - N/A   Overcast
9:30 PM 44.6 °F 40.7 °F 42.8 °F 93% 30.01 in 2.5 mi NNW 6.9 mph - N/A   Overcast
9:43 PM 44.6 °F 39.7 °F 42.8 °F 93% 30.00 in 4.0 mi NNW 9.2 mph - N/A   Overcast
9:53 PM 45.0 °F 41.2 °F 43.0 °F 93% 30.01 in 5.0 mi NNW 6.9 mph - N/A   Overcast
10:53 PM 44.1 °F 38.6 °F 42.1 °F 93% 30.01 in 2.5 mi NNW 10.4 mph - N/A   Overcast
11:18 PM 44.6 °F 43.1 °F 42.8 °F 93% 30.01 in 3.0 mi NNW 3.5 mph - 0.01 in   Overcast